[[{"header":{"parameterUnit":"m.s-1","parameterCategory":1,"la1":30.2991,"la2":30.254,"lo1":-89.0895,"lo2":-89.0444,"dy":0.0017,"dx":0.0017,"nx":28,"ny":28,"refTime":"2023-09-08T03:00:00:Z","depth":0,"parameterNumber":2,"parameterNumberName":"U-component_of_WINDS"},"data":[0,0,0,0,0,0,0,0,0,0,0,0,0,0,0,0,0,0,0,0,0,0,0,0,0,0,0,0,0,0,0,0,0,0,0,0,0,0,0,0,0,0,0,0,0,0,0,0,0,0,0,0,0,0,0,0,0,0,0.5276,0.5277,0,0.539,0.5391,0.5392,0.5359,0.5356,0.5354,0.5352,0.5477,0.5483,0.5488,0,0,0,0,0,0,0,0,0,0,0,0,0,0.504,0.5044,0.5276,0.5278,0.5279,0.5389,0.5391,0.5393,0.5359,0.5356,0.5353,0.5351,0.5475,0.5482,0.5489,0,0,0,0,0,0,0,0,0,0,0,0,0,0.5147,0.5046,0.5276,0.5275,0.5276,0.5389,0.5391,0.5393,0.536,0.5356,0.5353,0.5349,0.5473,0.5481,0.5489,0.5612,0,0,0.5515,0.5518,0,0,0,0,0,0,0,0,0.5141,0.5156,0.5274,0.5276,0.5277,0.5356,0.5354,0.5467,0.5361,0.5329,0.5352,0.5348,0.544,0.5451,0.5481,0.5618,0.5623,0.5516,0.5521,0.5524,0.5527,0,0,0,0,0,0,0,0.5134,0.5151,0.5321,0.5276,0.5278,0.5273,0.5284,0.5375,0.5403,0.5331,0.5329,0.5342,0.5441,0.5473,0.5483,0.5625,0.5515,0.5523,0.5528,0.5531,0.5873,0.5877,0,0,0,0,0,0,0.5124,0.5145,0.5318,0.5325,0.5199,0.528,0.5292,0.5335,0.5402,0.5409,0.5345,0.534,0.546,0.5474,0.5488,0.5638,0.5524,0.5532,0.5537,0.5869,0.5874,0.5878,0,0,0,0,0,0,0.5119,0.514,0.5313,0.5234,0.5256,0.5288,0.5335,0.5339,0.5371,0.5413,0.5419,0.5372,0.5458,0.5476,0.5582,0.5642,0.5536,0.5543,0.5864,0.587,0.5876,0.5939,0,0,0,0,0,0,0.5112,0.5138,0.5183,0.5235,0.526,0.5403,0.5339,0.5344,0.5384,0.5379,0.544,0.5446,0.5456,0.5569,0.559,0.5651,0.555,0.5859,0.5867,0.5874,0.5931,0.5946,0.5959,0,0,0,0,0,0.5104,0.5197,0.5185,0.5206,0.5316,0.5406,0.5421,0.5428,0.5389,0.5436,0.5463,0.5444,0.5631,0.558,0.5603,0.5668,0.5855,0.5864,0.5873,0.5925,0.5943,0.5958,0,0,0,0,0,0,0.5154,0.5204,0.5191,0.5304,0.535,0.54,0.5459,0.5446,0.5507,0.55,0.5509,0.5523,0.5632,0.566,0.5603,0.5792,0.5738,0.5752,0.577,0.5787,0.58,0.5793,0.5557,0,0,0,0,0,0.5177,0.5243,0.5284,0.538,0.5404,0.5428,0.5467,0.5468,0.5518,0.5539,0.5574,0.5626,0.5696,0.5743,0.581,0.5935,0.5949,0.5991,0.6004,0.6015,0.6029,0.61,0.6119,0.5908,0.5908,0.5908,0,0,0.5228,0.5263,0.5305,0.5391,0.5427,0.5499,0.5445,0.5522,0.5576,0.5552,0.5653,0.5681,0.574,0.5856,0.5909,0.5883,0.609,0.6027,0.6036,0.6043,0.6111,0.6131,0.6149,0.5914,0.5913,0.5912,0,0,0.5356,0.5388,0.5472,0.551,0.5564,0.558,0.56,0.5652,0.5669,0.577,0.5754,0.582,0.594,0.5984,0.6021,0.6167,0.6154,0.6189,0.6262,0.6331,0.6347,0.6362,0.6417,0.6437,0.6201,0.6202,0.6202,0,0.5413,0.5516,0.5518,0.5597,0.5637,0.5615,0.5702,0.5739,0.5815,0.5844,0.5813,0.5965,0.6003,0.6131,0.6166,0.6197,0.6223,0.6183,0.6344,0.6359,0.6373,0.6426,0.6446,0.6206,0.6205,0.6205,0.6204,0,0.5585,0.5657,0.5719,0.5789,0.5836,0.5919,0.5936,0.5984,0.5981,0.6001,0.6107,0.6151,0.6228,0.6258,0.6257,0.6386,0.6369,0.6341,0.6287,0.6397,0.6447,0.6467,0.6212,0.621,0.6209,0.6208,0,0,0.5749,0.5819,0.5842,0.5875,0.5934,0.5992,0.6075,0.6147,0.6189,0.6242,0.6315,0.6417,0.6392,0.6435,0.6439,0.6499,0.6616,0.6465,0.6467,0.6494,0.6765,0.6787,0.681,0.6606,0.661,0.6613,0.6761,0,0.5884,0.6027,0.6032,0.6164,0.6233,0.6214,0.6287,0.6333,0.6354,0.6418,0.6442,0.6515,0.6475,0.6501,0.656,0.6589,0.6671,0.6578,0.6677,0.6681,0.6665,0.6835,0.6859,0.6996,0.678,0.6783,0.6785,0,0.6061,0.6118,0.6256,0.6307,0.6336,0.6401,0.6469,0.6529,0.6582,0.6594,0.6642,0.6637,0.6726,0.6667,0.6792,0.6729,0.6769,0.679,0.6796,0.6807,0.6741,0.6854,0.704,0.7061,0.6815,0.6813,0.6811,0,0.6171,0.6281,0.6379,0.6407,0.6468,0.6515,0.6543,0.6592,0.6636,0.6697,0.6726,0.6797,0.6836,0.6893,0.6909,0.6864,0.7034,0.6976,0.7049,0.7049,0.7088,0.7086,0.7285,0.711,0.711,0.7109,0.7109,0,0.6323,0.6409,0.6429,0.6489,0.6586,0.6592,0.6689,0.6714,0.6759,0.6826,0.6814,0.6879,0.6895,0.6963,0.6976,0.7079,0.7097,0.7111,0.7114,0.7114,0.7112,0.7142,0.7134,0.7115,0.7113,0.7112,0.7111,0,0.6462,0.6478,0.6583,0.6632,0.6647,0.6717,0.676,0.682,0.6839,0.6925,0.6945,0.6977,0.7057,0.7077,0.7174,0.7183,0.7305,0.7298,0.7286,0.7287,0.736,0.7354,0.7588,0.762,0.7421,0.7423,0.7425,0,0.6559,0.6625,0.668,0.6723,0.6753,0.6822,0.6867,0.6876,0.6923,0.6989,0.7042,0.712,0.7183,0.7313,0.7346,0.742,0.7417,0.7494,0.7428,0.7426,0.7421,0.7418,0.7426,0.7507,0.7509,0.7511,0.7512,0,0.6731,0.6736,0.6798,0.6865,0.6917,0.697,0.7022,0.7058,0.7075,0.7129,0.7209,0.7258,0.7356,0.7435,0.751,0.7543,0.7533,0.7532,0.7553,0.7555,0.7547,0.7555,0.7323,0.7527,0.7526,0.7525,0.7524,0.7523,0.6854,0.6912,0.696,0.7031,0.707,0.7119,0.7177,0.7203,0.7269,0.7348,0.7349,0.7438,0.7492,0.7591,0.7628,0.77,0.7677,0.7708,0.7716,0.7724,0.7731,0.7533,0.7714,0.7713,0.7713,0.7712,0.7712,0,0.7027,0.7057,0.7122,0.7193,0.725,0.7231,0.7287,0.7337,0.7414,0.7463,0.7525,0.7619,0.7696,0.7735,0.7812,0.7863,0.786,0.7883,0.7881,0.7889,0.7746,0.7721,0.7884,0.7884,0.7884,0.7884,0.7884,0.7884,0.7124,0.7222,0.7233,0.7352,0.7382,0.7466,0.7501,0.7546,0.7586,0.7691,0.7753,0.7777,0.7824,0.7905,0.7976,0.7985,0.8016,0.8042,0.805,0.7916,0.7899,0.7882,0.7859,0.8048,0.8048,0.8187,0.8189,0.819]},{"header":{"parameterUnit":"m.s-1","parameterCategory":1,"la1":30.2991,"la2":30.254,"lo1":-89.0895,"lo2":-89.0444,"dy":0.0017,"dx":0.0017,"nx":28,"ny":28,"refTime":"2023-09-08T03:00:00:Z","depth":0,"parameterNumber":3,"parameterNumberName":"V-component_of_WINDS"},"data":[0,0,0,0,0,0,0,0,0,0,0,0,0,0,0,0,0,0,0,0,0,0,0,0,0,0,0,0,0,0,0,0,0,0,0,0,0,0,0,0,0,0,0,0,0,0,0,0,0,0,0,0,0,0,0,0,0,0,-0.4455,-0.4455,0,-0.4466,-0.4467,-0.4467,-0.4598,-0.4601,-0.4605,-0.4608,-0.4611,-0.4608,-0.4605,0,0,0,0,0,0,0,0,0,0,0,0,0,-0.4539,-0.4537,-0.4455,-0.4455,-0.4455,-0.4466,-0.4467,-0.4467,-0.4597,-0.4602,-0.4606,-0.4609,-0.4612,-0.4609,-0.4605,0,0,0,0,0,0,0,0,0,0,0,0,0,-0.4521,-0.4536,-0.4455,-0.4522,-0.4528,-0.4466,-0.4467,-0.4467,-0.4597,-0.4602,-0.4607,-0.4611,-0.4613,-0.4609,-0.4604,-0.4476,0,0,-0.4591,-0.4589,0,0,0,0,0,0,0,0,-0.4522,-0.4518,-0.4512,-0.4517,-0.4524,-0.4536,-0.4498,-0.447,-0.4595,-0.457,-0.4608,-0.4614,-0.4582,-0.458,-0.4571,-0.4477,-0.4477,-0.459,-0.4587,-0.4585,-0.4584,0,0,0,0,0,0,0,-0.4523,-0.4518,-0.4459,-0.4512,-0.4519,-0.4549,-0.4552,-0.4493,-0.4547,-0.4573,-0.4582,-0.4583,-0.4586,-0.4575,-0.4572,-0.4477,-0.459,-0.4586,-0.4583,-0.4582,-0.4279,-0.4274,0,0,0,0,0,0,-0.4516,-0.4519,-0.4459,-0.446,-0.4536,-0.4544,-0.4547,-0.4527,-0.4549,-0.4557,-0.4578,-0.4589,-0.458,-0.4577,-0.4572,-0.4424,-0.4586,-0.4581,-0.4579,-0.4284,-0.4278,-0.4272,0,0,0,0,0,0,-0.4518,-0.451,-0.4458,-0.4492,-0.4488,-0.4537,-0.4513,-0.4525,-0.4514,-0.4553,-0.4562,-0.4558,-0.4584,-0.4579,-0.45,-0.4426,-0.4579,-0.4575,-0.429,-0.4282,-0.4275,-0.4126,0,0,0,0,0,0,-0.452,-0.451,-0.4463,-0.449,-0.4485,-0.4387,-0.4509,-0.4521,-0.4507,-0.452,-0.4536,-0.4543,-0.4588,-0.4506,-0.4496,-0.4423,-0.4572,-0.4297,-0.4287,-0.4277,-0.4138,-0.4114,-0.4094,0,0,0,0,0,-0.4522,-0.4418,-0.446,-0.4452,-0.4428,-0.4383,-0.438,-0.4436,-0.45,-0.4453,-0.4478,-0.4543,-0.4437,-0.4497,-0.4486,-0.4411,-0.4302,-0.429,-0.4278,-0.4148,-0.4119,-0.4094,0,0,0,0,0,0,-0.4378,-0.4423,-0.4469,-0.4372,-0.4373,-0.4405,-0.4347,-0.4403,-0.4383,-0.4396,-0.4464,-0.4466,-0.4377,-0.4386,-0.4453,-0.4288,-0.4381,-0.4366,-0.4285,-0.4258,-0.4236,-0.4235,-0.4568,0,0,0,0,0,-0.4335,-0.4297,-0.4338,-0.4248,-0.4246,-0.4296,-0.4278,-0.4322,-0.4324,-0.4324,-0.4343,-0.4341,-0.4308,-0.4284,-0.4255,-0.4141,-0.4145,-0.4084,-0.4061,-0.4043,-0.4029,-0.3969,-0.3942,-0.4232,-0.4233,-0.4233,0,0,-0.4245,-0.4266,-0.4237,-0.4219,-0.4225,-0.4182,-0.4295,-0.4244,-0.4212,-0.4315,-0.4243,-0.4257,-0.4259,-0.4162,-0.412,-0.4167,-0.395,-0.4028,-0.4013,-0.4009,-0.3954,-0.3926,-0.3902,-0.4224,-0.4226,-0.4227,0,0,-0.406,-0.4072,-0.3999,-0.4003,-0.4012,-0.4046,-0.4028,-0.4053,-0.4067,-0.3996,-0.4073,-0.4035,-0.3975,-0.3974,-0.3965,-0.3781,-0.384,-0.377,-0.3654,-0.3595,-0.3572,-0.3552,-0.3485,-0.346,-0.3756,-0.3756,-0.3756,0,-0.3946,-0.3887,-0.3953,-0.3898,-0.3887,-0.3983,-0.3908,-0.3908,-0.3905,-0.3894,-0.3948,-0.3877,-0.3885,-0.3789,-0.3744,-0.3735,-0.3715,-0.3767,-0.357,-0.3551,-0.3533,-0.347,-0.3445,-0.3747,-0.3748,-0.3749,-0.375,0,-0.3746,-0.3703,-0.3643,-0.3641,-0.3624,-0.3559,-0.3613,-0.3588,-0.3633,-0.3661,-0.3587,-0.3601,-0.3577,-0.3558,-0.36,-0.3467,-0.3496,-0.3559,-0.3652,-0.3496,-0.3438,-0.3414,-0.3735,-0.3738,-0.374,-0.3743,0,0,-0.3467,-0.3506,-0.3482,-0.3483,-0.35,-0.3467,-0.3406,-0.3386,-0.3362,-0.3358,-0.3307,-0.3256,-0.3315,-0.3305,-0.3348,-0.3296,-0.3149,-0.3366,-0.3367,-0.3324,-0.3003,-0.2954,-0.2925,-0.3189,-0.3185,-0.3182,-0.3002,0,-0.3287,-0.3188,-0.3246,-0.3137,-0.3097,-0.3189,-0.3136,-0.3139,-0.3164,-0.3133,-0.316,-0.3123,-0.3204,-0.3199,-0.3152,-0.3177,-0.3085,-0.3191,-0.314,-0.3137,-0.3135,-0.2895,-0.2843,-0.2673,-0.298,-0.2976,-0.2974,0,-0.3063,-0.3053,-0.294,-0.2967,-0.2953,-0.2904,-0.289,-0.286,-0.2866,-0.2888,-0.2878,-0.2935,-0.2875,-0.2969,-0.2887,-0.2958,-0.2941,-0.295,-0.2945,-0.294,-0.3044,-0.2882,-0.2621,-0.2594,-0.2939,-0.2942,-0.2944,0,-0.2869,-0.2827,-0.2754,-0.2752,-0.2782,-0.2745,-0.2755,-0.2767,-0.2751,-0.2739,-0.2729,-0.2709,-0.2696,-0.2679,-0.2727,-0.2792,-0.2638,-0.2737,-0.2652,-0.2651,-0.2613,-0.2615,-0.2343,-0.2605,-0.2606,-0.2606,-0.2607,0,-0.2661,-0.2588,-0.2668,-0.2622,-0.2543,-0.2611,-0.253,-0.255,-0.256,-0.2519,-0.2596,-0.2555,-0.2624,-0.2589,-0.2627,-0.2553,-0.2547,-0.2561,-0.2572,-0.2553,-0.2551,-0.2541,-0.2553,-0.26,-0.2601,-0.2602,-0.2604,0,-0.243,-0.248,-0.2407,-0.2443,-0.245,-0.2389,-0.2419,-0.2377,-0.241,-0.2356,-0.2348,-0.2396,-0.236,-0.2408,-0.2376,-0.2401,-0.2299,-0.2328,-0.2297,-0.2305,-0.2217,-0.2224,-0.1928,-0.1893,-0.2179,-0.2176,-0.2174,0,-0.2292,-0.2239,-0.227,-0.225,-0.2256,-0.2222,-0.2207,-0.2272,-0.2253,-0.2258,-0.2215,-0.2187,-0.2167,-0.2104,-0.2135,-0.2111,-0.2139,-0.2037,-0.2135,-0.2118,-0.2135,-0.2137,-0.2132,-0.2016,-0.2012,-0.2009,-0.2007,0,-0.2043,-0.2072,-0.2049,-0.2035,-0.2016,-0.2008,-0.2005,-0.1983,-0.2051,-0.2026,-0.1992,-0.1976,-0.1946,-0.1915,-0.19,-0.1908,-0.1967,-0.1977,-0.1956,-0.1935,-0.1919,-0.1925,-0.224,-0.1982,-0.1985,-0.1987,-0.1988,-0.1989,-0.1854,-0.1811,-0.1826,-0.1798,-0.1804,-0.18,-0.1763,-0.1792,-0.1766,-0.1747,-0.1787,-0.1742,-0.1751,-0.1737,-0.1739,-0.1704,-0.1747,-0.1717,-0.1709,-0.17,-0.1686,-0.1926,-0.1701,-0.1702,-0.1703,-0.1703,-0.1704,0,-0.1607,-0.1623,-0.1597,-0.1592,-0.157,-0.1633,-0.1633,-0.1609,-0.157,-0.1574,-0.1555,-0.1515,-0.1486,-0.1516,-0.1493,-0.1459,-0.1486,-0.1451,-0.1453,-0.1453,-0.1649,-0.1669,-0.143,-0.143,-0.143,-0.143,-0.143,-0.143,-0.1476,-0.1407,-0.1437,-0.1371,-0.1386,-0.1346,-0.134,-0.1336,-0.1341,-0.1294,-0.1272,-0.1293,-0.1307,-0.1286,-0.1262,-0.1272,-0.1259,-0.1213,-0.1232,-0.1413,-0.144,-0.1465,-0.1484,-0.121,-0.121,-0.104,-0.1038,-0.1037]}]]